Latest Weather Observations for Point Wilson

IDV60801

Issued at 11:02 pm EST Wednesday 29 July 2015 (issued every 30 minutes, with the page automatically refreshed every 10 minutes)

About weather observations | Map of weather stations | Latest weather observations for VIC | Other Formats
Station Details ID: 087166 Name: POINT WILSON Lat: -38.10 Lon: 144.54 Height: 18.0 m
Data from the previous 72 hours. | See also: Recent months at Point Wilson
Date/Time
EST
Temp
°C
App
Temp
°C
Dew
Point
Rel
Hum
%
Delta-T
°C
Wind Press
QNH
hPa
Press
MSL
hPa
Rain
since 9 am
mm
Dir
 
Spd
km/h
Gust
km/h
Spd
kts
Gust
kts
29/11:00pm - - - - - NNE 24 26 13 14 - - -
29/10:30pm - - - - - NNE 22 26 12 14 - - -
29/10:00pm - - - - - NNE 22 24 12 13 - - -
29/09:30pm - - - - - NNE 24 26 13 14 - - -
29/09:00pm - - - - - NNE 22 24 12 13 - - -
29/08:30pm - - - - - N 20 24 11 13 - - -
29/08:00pm - - - - - N 20 24 11 13 - - -
29/07:30pm - - - - - N 17 19 9 10 - - -
29/07:00pm - - - - - N 19 20 10 11 - - -
29/06:30pm - - - - - NNW 15 17 8 9 - - -
29/06:00pm - - - - - NNW 17 20 9 11 - - -
29/05:30pm - - - - - WNW 17 20 9 11 - - -
29/05:00pm - - - - - NNW 19 20 10 11 - - -
29/04:30pm - - - - - NNW 19 20 10 11 - - -
29/04:00pm - - - - - NW 19 24 10 13 - - -
29/03:30pm - - - - - NW 22 30 12 16 - - -
29/03:00pm - - - - - NW 24 28 13 15 - - -
29/02:30pm - - - - - WNW 30 33 16 18 - - -
29/02:00pm - - - - - NW 26 30 14 16 - - -
29/01:30pm - - - - - WNW 28 33 15 18 - - -
29/01:00pm - - - - - NW 26 32 14 17 - - -
29/12:30pm - - - - - NNW 20 24 11 13 - - -
29/12:00pm - - - - - NNW 22 28 12 15 - - -
29/11:30am - - - - - NNW 20 24 11 13 - - -
29/11:00am - - - - - N 19 24 10 13 - - -
29/10:30am - - - - - N 17 19 9 10 - - -
29/10:00am - - - - - N 17 19 9 10 - - -
29/09:30am - - - - - N 15 17 8 9 - - -
29/09:00am - - - - - NNW 15 17 8 9 - - -
29/08:30am - - - - - NNW 13 17 7 9 - - -
29/08:00am - - - - - N 11 13 6 7 - - -
29/07:30am - - - - - NW 7 11 4 6 - - -
29/07:00am - - - - - NW 7 9 4 5 - - -
29/06:30am - - - - - WNW 7 9 4 5 - - -
29/06:00am - - - - - WNW 9 11 5 6 - - -
29/05:30am - - - - - N 6 9 3 5 - - -
29/05:00am - - - - - CALM 0 0 0 0 - - -
29/04:30am - - - - - CALM 0 0 0 0 - - -
29/04:00am - - - - - CALM 0 0 0 0 - - -
29/03:30am - - - - - CALM 0 0 0 0 - - -
29/03:00am - - - - - NW 2 6 1 3 - - -
29/02:30am - - - - - W 6 7 3 4 - - -
29/02:00am - - - - - W 7 9 4 5 - - -
29/01:30am - - - - - NNW 7 9 4 5 - - -
29/01:00am - - - - - N 9 11 5 6 - - -
29/12:30am - - - - - NNW 9 11 5 6 - - -
29/12:00am - - - - - NNW 9 9 5 5 - - -
 
Date/Time
EST
Temp
°C
App
Temp
°C
Dew
Point
Rel
Hum
%
Delta-T
°C
Wind Press
QNH
hPa
Press
MSL
hPa
Rain
since 9 am
mm
Dir
 
Spd
km/h
Gust
km/h
Spd
kts
Gust
kts
28/11:30pm - - - - - CALM 0 6 0 3 - - -
28/11:00pm - - - - - WNW 7 9 4 5 - - -
28/10:30pm - - - - - WNW 9 13 5 7 - - -
28/10:00pm - - - - - WNW 13 15 7 8 - - -
28/09:30pm - - - - - W 19 22 10 12 - - -
28/09:00pm - - - - - W 20 24 11 13 - - -
28/08:30pm - - - - - W 17 19 9 10 - - -
28/08:00pm - - - - - WSW 17 22 9 12 - - -
28/07:30pm - - - - - SW 6 7 3 4 - - -
28/07:00pm - - - - - WNW 17 19 9 10 - - -
28/06:30pm - - - - - NW 11 15 6 8 - - -
28/06:00pm - - - - - W 13 17 7 9 - - -
28/05:30pm - - - - - WSW 13 15 7 8 - - -
28/05:00pm - - - - - WSW 17 19 9 10 - - -
28/04:30pm - - - - - WSW 11 17 6 9 - - -
28/04:00pm - - - - - W 15 17 8 9 - - -
28/03:30pm - - - - - WSW 20 24 11 13 - - -
28/03:00pm - - - - - WSW 20 22 11 12 - - -
28/02:30pm - - - - - WSW 17 20 9 11 - - -
28/02:00pm - - - - - WSW 19 20 10 11 - - -
28/01:30pm - - - - - WSW 20 22 11 12 - - -
28/01:00pm - - - - - WSW 20 22 11 12 - - -
28/12:30pm - - - - - SW 19 20 10 11 - - -
28/12:00pm - - - - - WSW 17 19 9 10 - - -
28/11:30am - - - - - WSW 15 19 8 10 - - -
28/11:00am - - - - - WSW 15 19 8 10 - - -
28/10:30am - - - - - W 20 28 11 15 - - -
28/10:00am - - - - - WSW 30 33 16 18 - - -
28/09:30am - - - - - WSW 26 32 14 17 - - -
28/09:00am - - - - - W 22 28 12 15 - - -
28/08:30am - - - - - W 24 30 13 16 - - -
28/08:00am - - - - - W 24 28 13 15 - - -
28/07:30am - - - - - W 26 28 14 15 - - -
28/07:00am - - - - - W 24 30 13 16 - - -
28/06:30am - - - - - W 28 33 15 18 - - -
28/06:00am - - - - - W 26 30 14 16 - - -
28/05:30am - - - - - W 22 32 12 17 - - -
28/05:00am - - - - - W 26 32 14 17 - - -
28/04:30am - - - - - W 28 32 15 17 - - -
28/04:00am - - - - - WSW 28 33 15 18 - - -
28/03:30am - - - - - W 26 33 14 18 - - -
28/03:00am - - - - - W 26 32 14 17 - - -
28/02:30am - - - - - W 28 32 15 17 - - -
28/02:00am - - - - - W 28 33 15 18 - - -
28/01:30am - - - - - W 28 37 15 20 - - -
28/01:00am - - - - - W 30 35 16 19 - - -
28/12:30am - - - - - W 32 37 17 20 - - -
28/12:00am - - - - - W 30 35 16 19 - - -
 
Date/Time
EST
Temp
°C
App
Temp
°C
Dew
Point
Rel
Hum
%
Delta-T
°C
Wind Press
QNH
hPa
Press
MSL
hPa
Rain
since 9 am
mm
Dir
 
Spd
km/h
Gust
km/h
Spd
kts
Gust
kts
27/11:30pm - - - - - W 28 33 15 18 - - -
27/11:00pm - - - - - WNW 26 32 14 17 - - -
27/10:30pm - - - - - WNW 26 32 14 17 - - -
27/10:00pm - - - - - WNW 26 30 14 16 - - -
27/09:30pm - - - - - W 30 35 16 19 - - -
27/09:00pm - - - - - W 28 33 15 18 - - -
27/08:30pm - - - - - W 32 37 17 20 - - -
27/08:00pm - - - - - W 28 33 15 18 - - -
27/07:30pm - - - - - WNW 17 20 9 11 - - -
27/07:00pm - - - - - W 19 22 10 12 - - -
27/06:30pm - - - - - W 17 19 9 10 - - -
27/06:00pm - - - - - W 19 20 10 11 - - -
27/05:30pm - - - - - W 20 24 11 13 - - -
27/05:00pm - - - - - W 24 28 13 15 - - -
27/04:30pm - - - - - W 30 35 16 19 - - -
27/04:00pm - - - - - W 32 39 17 21 - - -
27/03:30pm - - - - - W 28 35 15 19 - - -
27/03:00pm - - - - - W 30 37 16 20 - - -
27/02:30pm - - - - - W 32 39 17 21 - - -
27/02:00pm - - - - - W 32 39 17 21 - - -
27/01:30pm - - - - - W 32 37 17 20 - - -
27/01:00pm - - - - - W 32 37 17 20 - - -
27/12:30pm - - - - - WSW 30 35 16 19 - - -
27/12:00pm - - - - - W 28 35 15 19 - - -
27/11:30am - - - - - W 32 35 17 19 - - -
27/11:00am - - - - - W 28 33 15 18 - - -
27/10:30am - - - - - W 32 35 17 19 - - -
27/10:00am - - - - - W 32 37 17 20 - - -
27/09:30am - - - - - W 35 43 19 23 - - -
27/09:00am - - - - - WNW 32 37 17 20 - - -
27/08:30am - - - - - WNW 30 39 16 21 - - -
27/08:00am - - - - - WNW 26 32 14 17 - - -
27/07:30am - - - - - W 30 39 16 21 - - -
27/07:00am - - - - - W 32 37 17 20 - - -
27/06:30am - - - - - WNW 28 35 15 19 - - -
27/06:00am - - - - - WNW 33 39 18 21 - - -
27/05:30am - - - - - WNW 32 35 17 19 - - -
27/05:00am - - - - - WNW 32 37 17 20 - - -
27/04:30am - - - - - W 39 48 21 26 - - -
27/04:00am - - - - - W 41 46 22 25 - - -
27/03:30am - - - - - W 35 44 19 24 - - -
27/03:00am - - - - - WNW 30 35 16 19 - - -
27/02:30am - - - - - WNW 33 41 18 22 - - -
27/02:00am - - - - - WNW 30 37 16 20 - - -
27/01:30am - - - - - WNW 30 35 16 19 - - -
27/01:00am - - - - - W 39 46 21 25 - - -
27/12:30am - - - - - W 35 44 19 24 - - -
27/12:00am - - - - - WNW 35 41 19 22 - - -
 
Date/Time
EST
Temp
°C
App
Temp
°C
Dew
Point
Rel
Hum
%
Delta-T
°C
Wind Press
QNH
hPa
Press
MSL
hPa
Rain
since 9 am
mm
Dir
 
Spd
km/h
Gust
km/h
Spd
kts
Gust
kts
26/11:30pm - - - - - W 43 50 23 27 - - -

Other Formats:

Comma delimited format used in spreadsheet applications
http://www.bom.gov.au/fwo/IDV60801/IDV60801.94847.axf

JavaScript Object Notation format (JSON) in row-major order
http://www.bom.gov.au/fwo/IDV60801/IDV60801.94847.json